Wind_Speed
45 45 44 42 41 41 42 42 44 44 44 45 45 45 46 52 52 55 60 67 71 72 64 55 51 28 2 12 17 7 6 11 12 13 12 16 26 35 41 42 46 43 44
44 46 46 45 43 43 42 41 43 41 43 44 43 43 45 48 50 52 57 64 67 69 62 53 48 38 8 15 21 12 7 4 9 9 9 10 19 30 38 42 41 42 39
43 43 43 42 44 43 42 41 42 39 41 42 42 41 43 44 48 49 54 59 64 64 60 52 46 41 19 7 21 20 12 9 1 10 13 10 14 17 29 39 42 41 40
44 41 41 43 43 42 41 41 41 37 40 41 41 41 41 41 46 47 52 56 61 62 58 51 44 39 33 2 18 21 21 14 8 4 5 8 10 13 21 33 39 40 38
44 39 43 43 44 41 39 39 37 35 39 41 40 39 38 38 43 44 50 53 58 60 56 50 42 36 32 19 12 20 25 22 15 9 6 12 15 15 20 29 34 36 30
45 43 42 42 37 35 37 36 33 35 39 40 39 37 36 36 40 42 47 51 55 58 55 47 42 35 31 26 8 16 20 29 24 19 12 9 8 19 19 27 31 32 26
41 40 40 34 35 35 33 33 32 36 38 40 38 36 34 33 37 39 44 50 56 56 54 46 39 35 28 25 17 10 17 23 28 27 21 14 10 6 11 23 25 28 25
40 37 36 38 32 32 33 34 34 35 37 39 37 34 31 31 35 36 41 46 53 57 54 47 40 35 28 23 18 10 16 18 26 26 27 22 13 8 11 18 23 21 23
35 36 34 32 30 32 34 35 34 32 34 37 35 32 29 27 32 34 38 44 50 55 55 49 43 36 27 20 16 11 9 20 24 28 25 22 19 13 12 14 22 23 25
29 29 29 29 30 31 32 32 31 29 32 34 35 31 27 25 29 33 38 43 49 53 56 54 49 40 28 19 16 11 7 17 26 26 28 27 25 24 20 17 17 21 25
31 33 32 33 33 31 30 30 30 30 31 33 33 30 27 24 27 31 36 42 47 54 56 56 55 50 40 25 17 15 12 10 27 29 29 30 31 30 25 19 18 21 25
32 32 33 33 32 30 29 31 29 29 30 33 33 29 25 22 25 29 34 40 47 54 57 58 59 55 50 41 21 21 19 18 20 30 31 30 32 34 30 24 22 20 21
30 30 31 32 33 31 31 30 28 28 29 32 31 27 24 20 22 27 33 38 46 53 57 60 63 60 58 49 23 27 27 25 19 31 30 29 30 33 30 30 26 23 16
32 34 34 33 32 32 30 28 28 30 29 30 31 27 22 17 19 25 30 36 44 52 57 59 64 63 59 49 23 16 36 28 25 24 32 30 30 31 33 30 28 26 21
38 35 35 34 33 32 31 32 32 32 29 29 30 28 20 15 16 22 29 35 42 51 55 56 58 56 55 48 28 6 32 27 24 18 31 31 29 27 28 27 29 24 23
35 35 35 33 31 30 33 35 34 33 29 28 29 28 21 12 15 20 26 32 40 48 52 48 45 47 49 44 31 21 28 21 17 12 19 34 30 28 29 26 27 25 23
42 37 37 36 35 33 32 31 32 32 29 28 27 27 22 14 13 17 24 29 36 44 48 39 32 36 42 43 39 31 25 18 9 4 8 25 32 28 29 29 29 25 23
40 39 39 40 38 37 36 36 33 32 31 28 26 27 25 14 11 14 21 25 31 37 45 34 24 25 27 27 25 20 15 8 6 5 6 16 29 29 28 29 26 28 23
44 44 41 37 38 37 36 33 34 34 30 26 24 27 26 15 11 13 18 21 26 31 40 32 17 15 18 18 17 15 13 10 5 4 5 17 25 25 23 24 28 26 25
49 47 45 43 43 40 38 35 35 34 28 27 25 27 27 20 12 11 14 17 22 26 34 30 18 10 12 16 15 14 13 11 12 4 6 19 26 22 23 20 23 28 26
50 49 47 45 45 44 41 36 35 34 29 28 26 27 27 25 14 9 10 14 17 22 29 29 21 10 6 9 11 12 13 12 15 8 9 18 27 25 23 19 20 28 27
49 49 48 48 48 44 40 36 35 35 31 29 27 26 28 27 18 10 8 10 13 17 22 26 22 16 7 3 6 9 11 11 14 12 6 12 18 23 25 22 23 25 27
48 49 53 53 50 45 41 37 35 36 33 30 29 27 30 30 23 14 10 8 8 14 18 22 22 17 13 5 3 4 7 8 9 11 9 10 14 19 20 21 23 23 23
51 51 54 57 49 43 41 38 34 35 32 30 29 28 32 32 29 19 13 8 5 9 14 18 19 16 13 9 5 4 2 4 5 7 9 8 14 15 15 19 22 24 25
58 55 57 57 55 45 43 41 36 34 32 28 29 28 33 34 34 25 16 11 6 5 10 14 18 16 11 9 7 6 8 4 1 6 7 8 7 13 16 19 22 25 27
62 60 63 60 59 55 52 49 42 43 34 30 29 28 34 36 37 30 20 15 9 3 6 11 16 18 12 7 8 6 6 10 8 3 3 4 7 9 13 19 22 24 27
Wind_Direction
313 315 315 311 311 312 313 317 318 324 322 326 329 335 340 345 348 360 5 5 7 10 10 14 14 21 61 202 180 231 328 80 98 138 136 114 115 128 128 128 131 147 168
310 310 311 309 312 312 314 316 318 324 320 325 328 335 339 344 348 358 5 5 8 10 10 13 13 17 31 204 214 212 260 320 71 94 144 133 128 129 137 136 134 141 144
306 309 308 309 311 316 315 315 318 322 319 323 326 334 337 344 347 354 3 5 8 8 9 12 11 15 20 205 227 212 233 255 355 92 122 125 158 145 140 140 143 147 146
306 309 308 310 316 318 315 315 319 321 318 322 324 332 336 343 347 354 2 4 8 8 8 11 9 10 15 344 224 228 218 233 228 140 99 131 156 125 153 147 145 145 145
302 308 309 311 318 315 313 318 321 317 317 322 322 330 334 342 346 354 2 4 7 9 8 9 9 6 11 8 218 232 227 232 232 217 198 158 183 179 163 156 152 148 149
300 305 305 312 314 313 316 322 320 316 319 321 321 326 333 339 345 354 3 5 7 9 8 8 7 6 3 8 332 224 222 222 228 225 209 167 160 204 208 173 166 160 152
298 301 308 314 313 316 319 319 319 314 318 320 318 325 330 336 343 351 358 3 5 7 6 7 7 3 358 2 360 258 225 212 219 221 224 231 201 157 172 205 186 179 165
298 305 309 312 314 313 313 315 314 311 314 316 316 322 327 334 342 348 355 359 2 5 3 3 6 2 355 349 356 331 236 219 210 213 224 229 227 188 156 181 202 197 179
301 303 304 307 309 310 310 311 310 305 311 314 312 319 323 331 341 347 353 359 360 3 0 358 358 360 353 339 340 341 268 223 207 203 205 208 209 189 159 164 176 180 181
300 308 312 313 314 309 308 310 304 304 309 312 310 317 320 329 337 341 348 357 358 1 359 357 352 350 349 334 310 313 296 226 213 203 194 190 191 181 162 157 165 182 183
306 309 310 311 313 312 312 311 306 305 309 310 308 314 317 323 335 340 347 356 360 359 359 356 351 344 338 328 297 272 255 236 213 209 202 190 187 194 184 185 177 165 175
303 306 308 309 310 310 311 310 311 308 311 310 304 310 312 318 332 339 347 356 359 0 359 358 354 348 338 329 297 249 233 221 211 206 206 201 190 190 189 193 190 176 170
299 305 307 304 305 305 306 306 309 311 314 310 303 305 307 312 332 338 346 355 359 0 1 360 360 356 346 339 314 226 210 208 203 199 197 199 193 190 197 200 197 197 185
297 302 303 303 302 301 302 302 307 309 312 309 301 300 298 307 336 343 348 354 360 1 0 1 4 2 352 352 346 220 195 191 193 190 190 193 195 188 190 196 196 202 207
292 291 292 295 297 299 296 300 304 304 307 308 301 296 290 301 338 343 348 352 1 3 0 3 6 5 6 8 16 120 176 175 181 186 188 178 183 190 184 186 190 192 197
286 286 285 290 296 300 299 300 304 302 304 309 301 293 282 287 329 338 348 353 3 6 2 5 11 15 24 28 43 92 144 152 162 184 189 188 184 185 189 184 180 187 179
283 283 287 291 294 295 295 301 304 301 299 303 299 289 275 270 313 331 344 353 3 7 5 9 22 32 44 52 64 85 104 102 108 124 184 191 185 180 180 188 179 187 183
275 274 277 280 281 286 290 294 297 296 296 300 294 284 270 261 293 325 339 350 2 10 8 9 18 30 43 54 64 79 90 89 69 119 151 180 186 180 169 182 188 189 186
268 270 271 270 271 274 280 283 286 288 290 291 287 279 265 250 270 307 327 342 0 8 11 8 10 23 33 37 46 49 55 59 58 44 164 171 170 183 170 176 184 187 192
263 263 265 267 268 269 273 276 280 282 283 285 282 274 258 244 249 289 317 334 353 8 12 10 7 2 28 33 31 43 46 51 32 34 147 161 163 178 174 173 182 195 191
261 259 258 259 260 262 266 268 272 274 278 278 276 274 252 245 237 265 306 328 349 5 14 6 13 354 355 23 27 34 45 47 39 43 129 156 158 165 173 177 192 194 202
255 254 251 252 251 253 257 259 266 269 274 275 270 270 245 242 227 232 282 315 344 359 11 8 9 10 344 333 9 19 36 50 50 53 127 158 159 166 174 184 187 187 193
248 244 246 246 247 250 253 258 261 265 269 272 268 265 243 237 226 218 247 282 332 350 6 8 4 11 6 318 270 337 16 38 55 58 76 171 173 177 184 190 193 193 192
245 238 245 242 243 246 250 254 256 260 263 268 266 262 243 233 228 215 224 249 287 336 354 7 3 4 7 356 295 247 291 23 45 70 71 99 171 177 188 187 186 188 186
245 239 238 238 238 241 247 248 253 260 259 265 267 258 244 231 231 215 211 227 241 320 338 357 5 357 359 2 349 270 239 228 98 71 85 84 110 161 175 182 184 183 178
241 238 235 238 238 242 247 246 247 249 258 257 265 253 243 228 232 221 207 213 216 238 322 344 356 355 349 337 351 323 266 239 228 210 74 93 99 138 168 175 175 178 176
Height
5682 5677 5672 5666 5660 5655 5650 5644 5639 5633 5627 5621 5614 5607 5599 5591 5581 5568 5554 5541 5525 5509 5494 5479 5471 5463 5459 5456 5456 5453 5452 5454 5450 5452 5452 5453 5454 5458 5461 5467 5474 5487 5496
5676 5671 5665 5659 5654 5648 5644 5639 5633 5628 5621 5617 5610 5604 5597 5589 5579 5568 5555 5542 5527 5511 5498 5484 5477 5469 5464 5461 5459 5459 5457 5460 5460 5458 5459 5460 5462 5465 5470 5474 5479 5490 5499
5665 5662 5657 5652 5647 5642 5638 5633 5627 5622 5617 5613 5606 5600 5593 5586 5578 5567 5555 5543 5529 5514 5500 5488 5480 5473 5467 5464 5460 5463 5462 5462 5466 5466 5466 5467 5469 5471 5475 5478 5485 5494 5502
5656 5653 5649 5645 5641 5636 5632 5627 5622 5618 5612 5608 5603 5597 5590 5584 5576 5566 5554 5543 5530 5517 5503 5490 5483 5476 5470 5466 5463 5463 5465 5466 5469 5470 5470 5471 5473 5477 5478 5483 5490 5496 5503
5649 5646 5642 5639 5635 5630 5626 5622 5617 5612 5607 5604 5599 5593 5588 5581 5574 5565 5554 5543 5530 5518 5505 5493 5484 5479 5473 5467 5464 5462 5465 5466 5468 5472 5473 5475 5477 5480 5484 5488 5494 5500 5506
5642 5638 5635 5632 5628 5624 5620 5616 5612 5607 5603 5599 5595 5589 5584 5579 5572 5564 5553 5542 5530 5518 5507 5495 5485 5479 5474 5468 5463 5462 5463 5466 5468 5472 5475 5477 5480 5482 5486 5491 5496 5502 5509
5632 5629 5627 5625 5622 5619 5614 5610 5606 5602 5597 5594 5590 5585 5581 5576 5570 5562 5551 5541 5530 5518 5507 5496 5486 5479 5474 5469 5464 5460 5461 5463 5466 5471 5475 5477 5481 5485 5487 5491 5498 5503 5510
5626 5623 5620 5618 5615 5612 5608 5605 5601 5596 5592 5589 5586 5581 5577 5572 5566 5559 5549 5539 5529 5518 5506 5495 5487 5479 5473 5468 5464 5460 5458 5460 5464 5468 5473 5478 5482 5486 5488 5491 5497 5503 5510
5620 5617 5613 5610 5607 5605 5602 5598 5595 5589 5587 5585 5581 5577 5572 5568 5563 5556 5547 5538 5527 5517 5505 5493 5485 5478 5471 5466 5462 5459 5456 5457 5461 5465 5470 5476 5481 5486 5489 5492 5497 5503 5509
5611 5611 5607 5604 5601 5598 5594 5592 5588 5584 5582 5579 5576 5572 5568 5564 5559 5553 5545 5536 5526 5515 5503 5490 5480 5473 5467 5462 5458 5455 5454 5454 5456 5461 5466 5473 5480 5485 5489 5494 5497 5502 5507
5606 5605 5602 5599 5595 5592 5589 5587 5583 5580 5577 5574 5572 5567 5564 5561 5555 5550 5543 5534 5524 5513 5500 5487 5476 5465 5458 5455 5451 5448 5447 5448 5451 5456 5461 5467 5475 5482 5488 5492 5498 5503 5508
5599 5597 5594 5592 5589 5586 5583 5581 5578 5575 5572 5569 5567 5563 5560 5557 5551 5547 5540 5532 5522 5512 5498 5484 5471 5457 5445 5438 5434 5435 5437 5440 5443 5450 5457 5463 5470 5478 5484 5491 5497 5503 5508
5592 5590 5587 5585 5582 5580 5577 5576 5572 5569 5567 5564 5561 5558 5555 5553 5548 5543 5538 5530 5521 5509 5496 5481 5465 5447 5430 5418 5409 5411 5421 5429 5436 5443 5451 5460 5467 5474 5481 5488 5495 5501 5506
5584 5583 5581 5579 5574 5573 5571 5570 5566 5565 5562 5559 5556 5553 5551 5549 5544 5540 5535 5527 5518 5506 5493 5479 5462 5442 5422 5405 5393 5392 5406 5421 5431 5438 5448 5457 5464 5471 5479 5486 5493 5499 5505
5574 5573 5573 5570 5567 5565 5564 5563 5560 5558 5556 5552 5551 5548 5547 5545 5541 5537 5532 5525 5516 5504 5491 5477 5461 5445 5424 5406 5393 5392 5406 5421 5431 5438 5446 5455 5463 5469 5477 5484 5490 5497 5505
5566 5564 5564 5561 5559 5558 5557 5556 5553 5551 5549 5547 5545 5543 5542 5540 5538 5534 5530 5523 5514 5503 5492 5478 5464 5451 5434 5420 5410 5409 5420 5432 5438 5443 5448 5456 5463 5470 5476 5483 5489 5496 5502
5554 5554 5554 5553 5551 5550 5548 5547 5545 5543 5541 5540 5539 5537 5536 5535 5533 5531 5528 5522 5513 5504 5493 5482 5471 5462 5450 5441 5435 5435 5441 5446 5449 5450 5452 5457 5464 5471 5477 5483 5489 5495 5501
5541 5542 5542 5542 5540 5541 5541 5539 5537 5536 5535 5533 5532 5531 5530 5530 5529 5528 5525 5520 5513 5504 5496 5486 5477 5471 5464 5458 5456 5454 5453 5453 5453 5453 5454 5457 5465 5472 5477 5484 5491 5496 5501
5527 5529 5529 5530 5531 5530 5530 5530 5529 5527 5527 5525 5525 5524 5525 5525 5525 5524 5522 5518 5511 5504 5497 5488 5481 5476 5471 5467 5464 5462 5459 5458 5457 5457 5457 5459 5465 5472 5479 5485 5491 5497 5502
5511 5513 5516 5517 5519 5519 5519 5520 5520 5519 5518 5517 5517 5517 5518 5519 5520 5520 5519 5515 5510 5504 5498 5490 5483 5479 5475 5472 5470 5468 5465 5462 5460 5458 5459 5462 5467 5473 5479 5484 5490 5497 5502
5495 5497 5500 5503 5505 5506 5508 5509 5509 5509 5509 5508 5509 5509 5511 5512 5514 5516 5515 5512 5508 5503 5498 5492 5485 5480 5477 5475 5473 5472 5469 5467 5464 5461 5462 5465 5469 5476 5482 5486 5490 5495 5499
5479 5481 5484 5488 5490 5492 5494 5496 5498 5498 5499 5499 5500 5501 5503 5505 5507 5510 5510 5508 5506 5502 5497 5492 5486 5481 5477 5475 5475 5475 5472 5470 5469 5467 5467 5469 5472 5477 5482 5487 5491 5495 5500
5459 5464 5468 5472 5475 5478 5481 5484 5486 5487 5489 5490 5491 5493 5494 5497 5500 5503 5504 5504 5502 5500 5496 5492 5487 5481 5478 5475 5475 5476 5476 5474 5473 5472 5471 5472 5474 5478 5482 5486 5491 5494 5498
5440 5446 5450 5456 5460 5464 5467 5471 5474 5474 5477 5479 5481 5484 5486 5490 5493 5496 5498 5499 5498 5496 5494 5491 5487 5482 5479 5476 5475 5476 5477 5477 5476 5476 5475 5475 5477 5479 5482 5485 5489 5493 5498
5419 5427 5432 5437 5443 5448 5453 5458 5461 5463 5466 5468 5471 5474 5477 5482 5485 5488 5491 5493 5494 5493 5492 5489 5486 5482 5478 5476 5474 5475 5476 5477 5478 5478 5478 5479 5478 5480 5483 5486 5490 5494 5498
5397 5405 5413 5419 5426 5432 5438 5443 5448 5451 5455 5458 5461 5464 5467 5472 5478 5482 5484 5486 5489 5488 5488 5486 5484 5482 5478 5476 5474 5474 5474 5476 5478 5479 5481 5481 5481 5482 5483 5486 5490 5494 5499